Погода в Бузовице

Украина / Черновицкая область     48°30′04″N   26°55′38″E
темп.,
°C
ветер,
м/с
пор.,
м/с
влажн.,
%
обл.,
%
осадки,
мм/ч
давл.,
гПа
погр.,
м
15 мая, сб
сб1500:00+10зюз2290100 0.0 100928
03:00+11юз2282100 0.0 100932
06:00+11ююз2281100 0.0 100945
09:00+11з4883100 0.1 1011356
12:00+12зсз5108399 0.3 1012574
15:00+16сз456435 0.4 10121139
18:00+17з23598 0.0 10111167
21:00+12зсз00785 0.0 101210
16 мая, вс
вс1600:00+11в228316 0.0 101220
03:00+10в23895 0.0 101234
06:00+9в358995 0.0 101191
09:00+16ююв587498 0.0 1011470
12:00+17ююв697090 0.0 1010520
15:00+19ююв6859100 0.3 10091019
18:00+20ююв695796 0.0 1007823
21:00+14ююв228293 0.5 100730
17 мая, пн
пн1700:00+14юз2288100 1.7 100720
03:00+12ссз229599 1.9 100733
06:00+12с3896100 0.4 1007317
09:00+14ссз478896 0.8 1007429
12:00+16ссз357542 0.0 1007646
15:00+20с445728 0.3 10051487
18:00+20ссз235210 0.1 10041129
21:00+15зсз12741 0.1 100512
18 мая, вт
вт1800:00+13всв1176100 0.0 100511
03:00+12сз71294100 1.9 1006625
06:00+11ссз3897100 6.8 1007396
09:00+13сз798461 8.4 1009830
12:00+16сз686241 0.1 10091407
15:00+19сз685094 0.1 10091975
18:00+16сз576666 0.2 1011610
21:00+12зсз227660 0.2 101224
19 мая, ср
ср1900:00+10зсз11783 0.0 101210
03:00+9ссз1282100 0.0 101210
06:00+9ссв118699 0.0 101210
09:00+13св2272100 0.0 1012313
12:00+17в5660100 0.3 10101335
15:00+16вюв5769100 1.2 1008860
18:00+12всв3896100 8.1 1007529
21:00+10ссв101597100 26.6 1004640